• Currently

    Reported at Minneapolis, Minneapolis-St. Paul International Airport, MN
    9:53 AM CST SUN JUL 23 2017
  • 73°F23°C
  • Mostly Cloudy
    Mostly Cloudy
  • Feels Like:73°F23°CDew Point:59°F15°CHumidity:61% Winds:NNW 12 mph 19 kph
    Pressure:29.91 in1013 hPaVisibility:10.00 miles16090.00 meters
Time Weather Temp Dew Point
Humidity Winds Visibility Pressure Precipitation
1 hr 24 hr
Sunday, July 16
23:53 23:53 Clear Clear 76°F24°C 62°F17°C 62% NNE 13 mphNNE 20 kph 10.0 miles16.1 km 30.03 in1017 hPa 0.00 in0.00 mm --
22:53 22:53 Clear Clear 78°F26°C 63°F17°C 60% N 9 mphN 15 kph 10.0 miles16.1 km 30.03 in1017 hPa 0.00 in0.00 mm --
21:53 21:53 Clear Clear 81°F27°C 62°F17°C 53% N 13 mphN 20 kph 10.0 miles16.1 km 30 in1016 hPa 0.00 in0.00 mm --
20:53 20:53 Sunny Sunny 82°F28°C 62°F17°C 51% N 9 mphN 15 kph 10.0 miles16.1 km 30 in1016 hPa 0.00 in0.00 mm --
19:53 19:53 Mostly Sunny Mostly Sunny 85°F29°C 64°F18°C 50% NNE 15 mphNNE 24 kph 10.0 miles16.1 km 29.97 in1015 hPa 0.00 in0.00 mm --
18:53 18:53 Mostly Sunny Mostly Sunny 90°F32°C 62°F17°C 39% N 14 mphN 22 kph 10.0 miles16.1 km 29.97 in1015 hPa 0.00 in0.00 mm --
17:53 17:53 Partly Cloudy Partly Cloudy 92°F33°C 67°F19°C 44% NNW 16 mphNNW 26 kph 10.0 miles16.1 km 29.97 in1015 hPa 0.00 in0.00 mm --
16:53 16:53 Partly Cloudy Partly Cloudy 94°F34°C 67°F19°C 41% N 12 mphN 19 kph 10.0 miles16.1 km 29.97 in1015 hPa 0.00 in0.00 mm --
15:53 15:53 Mostly Cloudy Mostly Cloudy 93°F34°C 68°F20°C 44% NW 14 mphNW 22 kph 10.0 miles16.1 km 29.97 in1015 hPa 0.00 in0.00 mm --
14:53 14:53 Partly Cloudy Partly Cloudy 93°F34°C 68°F20°C 44% W 13 mphW 20 kph 10.0 miles16.1 km 29.97 in1015 hPa 0.00 in0.00 mm --
13:53 13:53 Mostly Sunny Mostly Sunny 90°F32°C 70°F21°C 52% WSW 10 mphWSW 17 kph 10.0 miles16.1 km 30 in1016 hPa 0.00 in0.00 mm --
12:53 12:53 Mostly Sunny Mostly Sunny 89°F32°C 70°F21°C 53% W 9 mphW 15 kph 10.0 miles16.1 km 30 in1016 hPa 0.00 in0.00 mm --
11:53 11:53 Mostly Sunny Mostly Sunny 86°F30°C 69°F21°C 57% W 9 mphW 15 kph 10.0 miles16.1 km 30.03 in1017 hPa 0.00 in0.00 mm --
10:53 10:53 Partly Cloudy Partly Cloudy 82°F28°C 68°F20°C 63% SW 10 mphSW 17 kph 10.0 miles16.1 km 30.03 in1017 hPa 0.00 in0.00 mm --
09:53 09:53 Partly Cloudy Partly Cloudy 78°F26°C 66°F19°C 67% WSW 12 mphWSW 19 kph 10.0 miles16.1 km 30.03 in1017 hPa 0.00 in0.00 mm --
08:53 08:53 Partly Cloudy Partly Cloudy 74°F23°C 64°F18°C 71% SSW 7 mphSSW 11 kph 10.0 miles16.1 km 30.06 in1018 hPa 0.00 in0.00 mm --
07:53 07:53 Partly Cloudy Partly Cloudy 70°F21°C 61°F16°C 73% SSW 7 mphSSW 11 kph 10.0 miles16.1 km 30.06 in1018 hPa 0.00 in0.00 mm --
06:53 06:53 Mostly Cloudy Mostly Cloudy 68°F20°C 59°F15°C 73% SSW 8 mphSSW 13 kph 10.0 miles16.1 km 30.09 in1019 hPa 0.00 in0.00 mm --
05:53 05:53 Mostly Cloudy Mostly Cloudy 65°F18°C 58°F14°C 78% S 6 mphS 9 kph 10.0 miles16.1 km 30.09 in1019 hPa 0.00 in0.00 mm --
04:53 04:53 Mostly Cloudy Mostly Cloudy 65°F18°C 58°F14°C 78% SSW 3 mphSSW 6 kph 10.0 miles16.1 km 30.09 in1019 hPa 0.00 in0.00 mm --
03:53 03:53 Mostly Clear Mostly Clear 63°F17°C 57°F14°C 81% ESE 3 mphESE 6 kph 10.0 miles16.1 km 30.09 in1019 hPa 0.00 in0.00 mm --
02:53 02:53 Clear Clear 64°F18°C 57°F14°C 78% SE 6 mphSE 9 kph 10.0 miles16.1 km 30.12 in1020 hPa 0.00 in0.00 mm --
01:53 01:53 Clear Clear 66°F19°C 58°F14°C 75% S 6 mphS 9 kph 10.0 miles16.1 km 30.12 in1020 hPa 0.00 in0.00 mm --
00:53 00:53 Mostly Clear Mostly Clear 67°F19°C 57°F14°C 71% S 5 mphS 7 kph 10.0 miles16.1 km 30.15 in1021 hPa 0.00 in0.00 mm --